GFSSGP_925_rhum_198.txt.gz
RH
17 19 18 26 29 42 39 30 26 23 36 64 62 62 63 82 66 63 92 96 87 87 86 87 76 78 93 94 96 89 79 73 71 73 75 77 91 94 92 92 97 99 98 98 99 100 98 82 75
17 20 23 31 35 34 27 29 27 28 41 66 64 70 74 86 84 90 96 100 95 88 84 80 75 85 94 95 92 91 87 80 78 82 89 99 93 91 85 80 79 80 96 100 100 96 84 77 77
20 19 21 33 44 32 28 23 25 24 47 59 69 79 86 92 78 87 98 97 94 98 81 80 73 72 86 91 91 93 94 93 99 99 98 99 99 96 86 85 81 75 79 78 75 71 74 76 75
20 21 22 24 25 25 26 20 18 16 28 54 72 81 82 83 83 93 99 90 98 98 87 82 77 76 77 86 93 92 94 97 97 98 98 98 100 99 93 88 83 79 69 56 47 46 46 45 43
19 26 28 23 22 19 19 18 16 15 29 64 63 77 89 93 97 97 95 97 99 99 91 84 80 84 86 86 90 91 92 97 97 98 100 100 100 91 90 85 78 58 38 26 22 22 23 25 24
28 26 31 29 23 20 20 18 18 32 53 72 76 87 89 95 99 100 100 99 99 97 95 90 87 87 84 89 87 85 96 97 99 100 96 97 89 86 84 69 38 23 19 19 22 26 30 33 34
27 33 34 27 28 24 17 14 32 48 58 62 70 84 89 97 95 100 100 100 100 100 96 92 82 78 84 86 88 93 97 93 90 91 96 89 84 76 50 26 21 20 26 32 32 33 35 36 38
30 30 30 29 26 21 15 13 28 42 63 65 67 74 80 90 99 100 100 100 100 100 98 93 82 78 82 86 90 92 88 87 90 94 98 77 53 30 25 26 28 29 34 37 38 38 38 35 36
21 28 31 24 22 19 15 14 12 48 60 68 77 80 75 99 100 100 100 100 100 100 100 94 85 81 84 85 91 96 90 91 93 96 56 37 32 31 32 37 38 36 39 38 35 37 36 32 37
23 30 25 20 19 17 18 14 12 28 57 62 77 89 96 99 100 99 99 99 100 100 100 94 78 81 96 90 97 98 96 94 96 65 45 41 39 39 40 42 42 41 41 38 36 36 36 36 42
22 26 21 18 18 19 19 19 14 15 26 41 54 93 86 90 95 97 99 99 99 98 96 91 76 88 97 98 99 96 97 97 78 67 58 53 51 47 44 42 42 41 40 37 37 38 37 38 44
27 24 21 20 20 26 25 17 17 17 15 33 46 84 87 90 90 95 95 98 98 99 96 74 78 90 95 100 98 96 96 77 69 67 56 52 53 52 45 44 43 41 40 37 39 39 39 39 48
30 26 27 29 29 31 22 23 20 18 16 69 87 90 89 84 84 87 83 93 97 99 93 86 80 83 80 83 99 83 65 63 63 62 56 56 52 48 46 46 45 42 41 39 41 39 42 43 51
30 32 34 31 30 28 24 24 22 18 57 79 89 97 89 82 81 81 78 88 98 92 94 87 81 74 63 59 66 66 64 61 62 61 61 57 54 50 50 47 43 41 41 41 42 40 42 44 56
32 36 34 26 26 24 24 23 22 23 69 75 86 91 96 88 85 82 82 79 91 87 91 89 79 60 46 52 62 64 62 61 60 60 59 57 54 51 48 46 43 40 38 40 43 43 40 43 56
37 37 42 28 24 19 21 29 20 38 68 66 79 87 90 91 89 92 90 87 84 94 93 89 80 55 54 60 67 64 60 58 58 59 58 57 55 52 49 47 45 44 43 43 44 44 40 44 66
46 46 41 40 28 22 20 24 20 18 36 50 55 81 88 90 86 83 86 93 90 96 95 90 85 66 65 65 68 64 62 62 59 57 58 58 56 53 50 48 46 46 44 44 43 45 38 48 75
46 46 44 48 39 27 28 27 24 19 18 20 21 47 86 88 81 77 81 82 91 96 95 89 87 78 66 74 73 67 65 62 59 58 57 56 55 52 50 48 48 47 40 41 43 40 41 63 80
45 49 56 50 39 27 28 28 25 20 20 21 20 20 24 74 70 72 74 76 88 94 94 92 89 86 81 78 77 72 66 60 57 56 58 58 54 51 50 48 46 43 36 39 43 40 50 75 72
52 59 61 49 35 24 25 26 23 20 20 19 17 18 18 21 26 75 76 77 85 87 90 90 87 82 82 79 77 73 67 66 59 59 59 60 56 52 50 48 47 41 33 44 48 38 66 71 62
55 60 56 48 28 22 25 28 26 19 18 17 16 20 35 53 56 57 82 78 84 87 88 86 82 76 79 78 74 71 71 70 66 62 58 59 59 54 53 52 46 40 34 36 49 43 41 61 67
50 43 44 38 25 34 23 34 24 20 19 18 21 38 76 77 75 66 79 82 83 83 85 84 80 81 77 76 74 68 70 73 68 61 60 62 62 59 57 53 50 44 38 36 43 50 44 37 55
30 24 24 22 26 29 28 34 22 19 19 21 41 56 79 87 90 88 90 90 92 88 92 94 91 87 82 79 74 71 70 68 64 63 61 66 65 62 61 58 53 46 41 38 39 43 46 46 45
20 22 27 40 34 43 32 32 30 28 42 50 49 71 83 92 98 98 100 100 100 98 98 94 96 99 96 89 86 85 86 82 72 66 64 69 67 66 65 60 53 44 42 42 43 42 40 41 46
25 30 41 41 48 38 33 39 28 36 52 54 64 76 84 90 95 99 96 96 100 100 98 96 93 97 94 96 100 95 91 82 73 63 59 63 66 67 66 60 53 50 47 46 46 43 35 31 39
28 31 44 45 50 44 36 44 35 50 52 57 60 71 79 87 93 96 98 99 100 100 92 93 87 68 75 86 98 98 93 82 68 59 55 58 60 61 63 59 57 54 50 46 48 44 33 32 47
27 35 30 40 44 54 46 37 46 45 51 58 60 67 76 84 90 94 95 96 97 89 91 81 70 79 83 92 99 93 78 67 65 63 57 55 57 61 59 59 59 56 49 44 47 46 39 40 45
24 24 33 49 53 51 46 46 44 54 45 48 62 62 63 69 80 88 93 91 91 89 84 72 78 82 94 98 94 83 73 67 65 64 61 58 58 60 57 54 54 55 50 44 49 50 49 47 52
30 34 33 38 57 52 45 42 49 49 44 44 49 46 48 47 58 74 88 80 83 90 92 92 95 92 91 90 84 79 76 77 74 66 61 58 57 60 57 50 53 53 51 49 49 51 53 50 50
29 33 37 53 43 65 80 55 51 50 45 40 40 36 50 44 46 46 70 70 75 76 83 87 89 90 86 82 84 80 77 75 69 68 69 63 61 58 56 53 54 53 53 54 49 53 52 49 52

GFSSGP_925_rhum_201.txt.gz
RH
14 20 19 23 18 24 23 19 22 21 24 50 52 44 46 65 52 47 91 95 98 98 99 98 87 89 89 94 92 95 88 79 78 87 91 90 91 89 86 89 97 92 90 96 98 98 100 95 93
17 19 20 22 19 16 12 20 20 20 31 56 58 59 56 58 75 82 90 98 98 96 97 98 88 88 88 89 87 93 96 100 95 94 99 98 98 98 100 97 100 99 99 100 99 84 70 79 84
20 18 16 21 27 15 14 16 16 19 33 38 60 68 64 65 70 76 96 97 100 94 88 93 89 89 88 88 89 90 97 92 98 97 97 98 98 100 100 99 100 100 99 96 76 70 74 76 74
20 17 16 17 18 18 18 13 14 14 27 45 54 57 74 80 73 87 98 99 97 96 93 76 87 93 92 89 87 87 86 91 97 94 97 98 98 100 95 90 82 77 70 59 47 43 42 43 40
19 19 20 19 17 16 16 14 15 16 21 56 54 55 70 84 98 99 99 99 100 100 98 90 80 84 90 90 89 88 85 89 89 90 95 97 99 95 83 82 76 60 43 31 27 24 23 22 22
20 20 22 20 19 17 17 17 16 29 45 59 55 61 69 87 97 96 96 91 90 98 95 97 81 82 86 86 87 89 89 91 90 93 98 99 100 88 86 76 53 29 21 20 24 24 25 26 28
22 24 26 24 24 21 16 13 35 47 52 51 56 51 76 90 94 97 96 96 98 97 95 88 97 87 82 83 89 88 85 91 94 98 99 100 93 86 71 39 24 21 23 29 32 31 31 32 38
23 22 27 25 22 19 15 13 14 37 47 58 58 47 51 78 98 99 99 95 99 100 100 99 97 96 93 86 94 92 94 96 91 92 97 91 79 56 46 38 40 35 36 36 35 34 32 35 51
19 22 25 21 21 17 15 16 12 47 55 58 60 60 66 85 99 100 100 100 100 100 100 99 93 83 79 82 97 100 99 94 92 95 93 62 56 48 49 49 45 44 39 38 38 35 31 37 51
18 23 21 18 17 17 17 16 14 24 48 51 59 70 87 98 97 99 98 98 100 100 100 100 91 82 81 88 95 100 100 99 96 92 73 42 41 44 66 64 59 47 39 36 36 33 33 49 71
21 21 20 18 17 16 20 20 14 14 18 31 35 56 84 94 89 95 94 97 100 98 99 97 95 92 87 91 96 100 99 96 93 87 47 41 42 45 46 44 45 43 39 38 39 38 41 45 66
25 22 21 18 22 23 23 19 18 15 14 15 22 55 74 81 85 83 90 94 98 100 100 95 93 89 86 94 97 96 97 95 92 72 53 49 49 48 46 43 42 41 40 38 39 39 40 48 55
28 25 25 24 26 27 27 24 21 18 14 35 53 70 72 72 76 85 87 92 87 96 99 97 89 83 89 100 98 96 96 95 91 71 61 55 55 51 46 44 40 38 37 37 38 41 45 64 81
28 28 28 27 25 26 24 21 20 17 30 44 69 67 71 72 71 82 88 82 86 88 97 99 88 80 86 94 99 98 94 90 73 68 57 55 55 50 46 43 41 38 37 37 37 41 43 72 82
30 32 28 25 24 21 22 21 18 20 53 50 59 66 74 73 74 72 76 77 81 84 93 100 90 87 86 82 85 96 82 67 65 64 60 59 54 49 48 45 42 39 39 40 40 43 46 78 82
32 34 34 24 25 20 19 25 19 19 34 24 39 55 64 70 72 73 75 77 75 85 95 95 91 86 78 71 68 74 67 64 66 67 64 58 55 52 49 46 44 44 45 45 43 44 66 81 80
39 33 39 33 26 25 28 32 20 18 16 16 16 22 47 59 66 74 80 82 80 81 95 94 92 87 74 58 65 70 67 66 64 62 60 59 57 53 50 47 44 45 44 46 44 44 70 85 84
31 37 39 40 32 31 33 33 25 18 16 16 16 17 22 46 48 56 70 77 85 87 95 93 96 88 70 60 73 77 70 66 64 63 61 60 58 56 54 50 46 46 46 49 48 47 80 82 78
40 44 45 39 35 42 37 32 24 17 18 17 17 16 15 18 23 34 59 72 81 90 95 96 98 92 75 72 85 85 76 76 67 64 61 60 58 56 53 50 48 45 47 50 46 62 84 84 81
45 48 43 41 36 35 28 25 18 16 16 17 17 16 34 44 44 46 42 67 79 85 93 96 96 97 84 76 86 88 83 78 71 63 64 60 57 55 53 48 47 45 44 47 47 70 77 81 74
50 52 49 43 35 23 23 22 22 19 18 16 18 32 51 61 61 55 53 62 78 86 95 99 95 96 92 83 88 81 78 70 70 66 64 63 59 56 55 51 46 42 49 64 57 72 70 71 77
47 39 42 43 38 31 22 27 21 18 16 16 34 50 66 72 69 68 70 79 85 91 97 95 95 96 100 98 92 83 78 76 72 74 70 67 62 61 60 55 50 42 38 46 48 51 70 68 66
27 28 28 25 24 28 24 26 20 17 15 18 36 61 67 81 89 88 86 93 95 97 96 92 93 98 100 99 99 95 90 86 78 74 71 71 67 64 64 60 54 45 38 39 51 48 46 65 67
21 22 26 34 30 30 21 23 19 21 33 36 42 58 62 66 77 88 95 98 99 99 100 98 99 99 95 89 88 90 90 94 95 91 82 74 71 66 64 60 54 48 40 39 41 43 46 43 55
24 25 27 26 34 27 30 29 21 30 46 48 56 58 63 69 72 82 89 88 96 100 100 93 85 88 82 78 77 86 93 100 98 96 90 86 82 72 62 58 54 48 42 41 39 37 36 41 56
28 28 33 30 30 27 33 33 25 47 49 53 56 63 63 61 69 75 83 94 94 100 96 76 75 78 76 72 68 77 78 92 94 90 91 88 76 64 60 60 54 46 42 42 43 39 33 34 50
29 33 30 38 41 42 28 30 43 43 48 54 58 59 54 54 62 68 77 90 96 95 91 86 79 77 66 56 65 92 100 100 100 95 87 79 60 57 59 59 57 51 47 44 41 35 32 53 66
24 23 32 39 41 39 28 28 26 48 43 46 54 43 38 41 48 54 66 77 88 91 89 92 93 80 69 67 74 92 100 100 98 90 77 63 57 59 58 57 55 49 45 43 46 42 37 42 62
26 28 31 33 42 41 41 36 48 49 48 43 38 36 34 34 32 36 52 63 76 85 86 90 98 94 90 94 95 98 100 98 92 81 78 75 66 63 59 57 57 52 45 46 51 44 42 58 62
29 31 33 44 39 47 58 57 44 43 37 35 32 30 32 33 32 35 34 50 72 81 82 86 96 100 100 100 88 99 100 94 85 76 76 83 70 66 60 58 58 56 49 45 54 61 64 63 61

GFSSGP_925_rhum_204.txt.gz
RH
23 24 18 15 14 11 10 15 13 16 16 21 27 32 28 30 34 41 71 78 75 69 73 92 91 91 88 75 69 71 71 71 76 70 66 70 80 84 86 84 86 88 83 82 87 96 98 63 54
20 19 14 12 11 7 8 11 13 13 14 22 30 38 36 33 46 56 68 81 77 79 79 80 87 86 87 84 77 75 76 69 70 74 82 88 88 87 89 92 89 89 95 99 100 100 91 68 68
20 16 11 11 10 8 9 11 11 11 13 19 24 41 40 39 50 55 74 80 75 73 74 76 85 87 89 90 88 87 83 88 86 92 93 90 91 92 98 99 99 98 98 100 94 91 76 74 72
16 12 12 12 9 11 12 11 14 16 17 11 21 31 47 55 53 66 82 80 72 70 69 82 88 88 87 87 89 92 92 91 90 87 88 91 94 97 98 100 100 99 92 74 60 60 58 52 50
15 14 13 11 11 11 10 11 15 22 15 29 28 32 43 61 68 80 83 79 74 72 70 89 89 87 87 88 88 87 86 88 90 87 90 93 96 99 100 94 79 70 55 44 37 34 29 26 25
14 13 15 13 11 12 11 12 18 26 32 37 36 36 45 71 77 85 85 81 84 86 76 81 89 87 87 87 86 85 89 90 91 88 91 94 98 100 90 81 66 46 31 25 25 27 27 27 26
16 16 16 15 14 13 12 10 13 20 27 30 36 31 49 65 79 86 89 86 86 93 82 82 87 91 84 84 86 87 86 85 87 88 92 97 98 93 83 62 38 25 26 28 31 33 35 38 34
14 14 17 15 14 13 11 11 10 14 21 36 35 26 25 48 82 90 94 99 98 95 84 81 78 82 86 94 90 90 85 88 91 90 92 100 91 82 59 36 39 31 34 33 34 34 41 52 55
12 14 13 14 14 12 11 13 10 20 20 32 35 36 44 57 84 92 91 98 100 98 91 84 85 84 83 87 98 93 86 93 95 92 90 88 76 72 58 62 54 42 42 39 36 34 41 59 74
13 14 13 12 12 13 12 13 13 11 13 18 26 38 53 61 75 88 90 92 96 100 98 87 88 91 96 99 100 100 100 100 99 94 90 79 76 61 59 66 50 44 42 39 36 35 43 53 55
14 15 14 13 12 13 13 13 12 12 12 11 13 12 44 69 65 63 81 84 91 95 100 96 92 97 96 93 96 100 100 100 100 94 84 73 69 74 71 75 60 59 49 47 45 53 43 48 46
19 15 15 14 15 16 16 14 14 12 12 10 10 14 29 54 54 51 66 79 87 96 89 98 100 99 99 94 91 95 99 96 94 90 79 72 70 74 73 62 62 54 46 46 45 44 56 57 58
20 17 18 17 17 16 16 18 16 15 13 14 16 25 25 35 41 49 56 73 74 82 79 78 92 100 99 97 95 99 100 97 94 88 72 70 66 77 65 58 56 52 49 48 46 50 56 60 61
20 20 19 18 17 18 18 14 16 13 21 20 30 22 25 35 39 45 60 68 67 66 74 79 87 97 94 98 92 97 96 97 96 90 77 79 77 60 67 60 53 50 48 46 46 48 56 58 61
21 23 16 16 17 16 15 17 15 14 19 16 22 26 31 35 41 43 50 68 62 61 66 81 84 88 89 88 95 95 95 95 96 91 87 75 56 54 61 54 52 50 51 52 48 53 56 60 60
22 22 21 18 18 16 17 16 15 13 15 14 14 16 22 26 32 37 44 50 55 61 66 73 82 82 88 84 89 87 87 90 84 79 81 62 57 63 64 54 52 54 56 49 50 50 57 58 61
24 18 18 17 19 19 20 20 16 15 17 15 14 14 13 17 21 31 40 47 51 54 66 78 79 82 86 85 83 83 80 78 71 70 72 78 73 69 61 54 54 67 53 50 47 49 55 58 59
18 17 16 20 17 22 21 19 15 14 16 16 15 14 12 14 15 20 25 36 48 55 60 80 79 83 86 86 85 81 75 69 65 64 63 71 69 71 65 55 60 60 53 53 48 50 57 60 60
25 24 23 18 16 22 24 21 17 16 16 16 14 13 14 20 23 27 32 37 45 55 65 79 84 84 87 87 82 76 73 65 65 62 66 75 69 73 68 57 65 58 52 52 55 58 65 63 61
28 28 24 20 22 26 21 21 16 15 14 13 13 16 26 27 28 34 39 41 50 54 63 75 85 91 88 84 80 75 70 64 64 65 76 78 76 74 69 60 60 60 52 58 60 62 64 61 62
26 29 26 27 22 18 18 16 14 13 13 14 20 28 33 37 37 39 43 51 55 59 64 79 90 96 93 88 88 82 75 78 76 76 78 80 80 81 73 71 61 62 58 61 63 64 60 61 60
23 22 25 24 21 19 16 20 13 11 13 15 29 36 41 44 43 44 46 53 61 74 83 90 94 97 100 95 95 94 91 87 80 82 77 84 86 88 82 77 70 73 64 62 66 64 63 60 62
19 21 19 19 19 20 18 18 14 12 12 12 30 41 46 52 62 59 59 64 69 76 84 92 99 99 99 99 99 98 92 89 84 80 75 76 75 66 68 69 61 72 68 69 63 67 65 58 55
16 18 16 17 20 23 16 15 15 12 16 20 34 37 42 44 50 64 80 79 80 83 87 89 94 100 99 97 96 92 88 91 94 94 96 94 96 95 81 64 65 55 53 70 77 76 74 65 58
19 19 24 26 27 26 18 18 15 16 21 27 36 40 35 33 40 49 58 69 84 85 87 87 89 94 92 91 87 85 83 85 89 93 93 100 98 95 90 82 69 60 48 43 60 69 69 64 63
19 18 26 32 28 23 19 24 18 29 34 39 40 36 29 28 30 34 43 62 73 80 81 85 82 80 85 89 92 96 99 100 100 94 90 95 87 80 85 90 86 71 50 48 60 63 60 62 62
21 23 18 28 24 31 24 18 21 30 36 41 40 34 31 26 26 27 27 44 61 70 76 78 69 70 77 84 88 94 98 100 100 100 100 100 98 89 88 82 70 60 50 47 61 60 59 62 63
20 16 28 25 38 37 24 22 20 28 29 39 42 36 30 25 22 20 20 22 32 54 63 71 70 63 64 68 71 76 89 99 99 98 99 100 99 97 94 90 78 72 56 65 62 62 61 59 58
22 22 23 23 26 38 41 34 28 29 32 34 31 27 24 22 20 21 23 24 26 37 56 63 67 73 71 64 69 82 91 97 100 100 100 97 95 80 77 81 78 75 71 69 63 58 57 53 52
20 23 23 34 38 36 43 58 25 27 29 26 24 21 21 21 22 23 25 26 30 46 48 54 59 70 83 82 96 82 93 98 99 100 96 91 72 68 66 78 79 73 70 68 61 60 53 52 52

GFSSGP_925_rhum_207.txt.gz
RH
18 25 15 10 13 9 8 10 10 12 13 15 19 25 25 20 30 50 54 61 54 47 74 91 85 85 74 66 68 80 90 90 89 82 76 72 67 73 79 82 87 88 90 93 94 92 62 53 55
17 14 11 10 13 8 8 8 10 10 11 15 18 23 22 30 30 45 50 70 60 59 77 78 90 86 80 70 72 79 86 85 81 76 68 75 81 80 84 85 85 84 85 93 97 98 83 61 58
22 13 12 10 8 8 9 8 9 9 10 13 16 25 26 34 37 43 62 67 67 73 70 77 85 87 87 79 80 82 81 78 72 70 82 82 81 82 86 87 86 88 93 98 98 99 74 74 73
13 11 8 12 8 9 9 9 11 11 12 9 12 24 31 42 38 49 61 68 68 68 64 76 81 83 85 84 81 78 76 71 80 84 85 85 85 88 97 98 98 98 98 100 94 72 68 65 67
14 10 12 10 9 9 8 10 12 15 16 16 18 26 33 42 51 58 63 68 61 62 64 83 82 86 84 82 84 82 79 85 85 85 84 84 86 93 97 98 100 97 87 75 54 46 39 35 42
12 10 12 10 9 9 9 10 12 17 21 24 25 23 35 50 55 60 65 71 66 58 68 76 86 83 83 85 89 89 87 90 87 88 88 84 92 92 98 88 79 69 53 40 32 27 26 26 28
14 13 13 10 10 10 10 9 10 13 16 21 22 20 39 49 57 64 66 76 74 68 68 76 84 89 85 87 88 88 88 88 89 90 88 89 93 99 88 80 63 42 27 25 26 27 29 28 28
10 10 11 10 10 10 9 9 9 9 16 14 15 20 34 39 61 66 66 76 79 80 73 77 76 79 85 90 88 87 88 91 89 87 88 90 99 90 80 64 41 26 26 28 29 32 36 35 40
9 12 10 10 10 10 9 10 8 9 10 14 16 15 29 47 60 67 74 74 77 75 69 77 74 72 75 79 92 86 88 89 86 91 89 90 85 81 63 67 42 35 36 36 33 36 44 49 56
11 12 10 9 9 10 9 10 9 10 9 12 16 18 30 47 56 61 67 72 83 84 72 73 71 71 67 69 93 97 99 97 98 97 90 85 75 70 59 71 40 45 41 37 39 38 45 58 65
12 13 10 10 9 9 10 10 9 10 10 9 9 9 27 33 42 52 60 62 78 90 78 76 78 82 81 94 99 100 100 100 99 97 90 82 76 67 62 71 66 68 47 51 48 44 59 45 42
15 12 12 11 11 12 12 11 12 10 10 8 8 9 12 29 33 33 42 55 65 78 81 75 80 86 88 93 98 99 99 100 99 93 87 78 72 74 64 65 58 57 54 49 50 46 44 48 46
16 13 12 12 12 13 12 13 13 12 10 10 11 12 16 15 24 29 31 44 61 76 76 80 77 91 92 94 94 100 99 98 98 91 85 77 74 70 67 59 55 48 43 44 44 40 53 53 54
14 15 14 13 13 13 14 13 12 11 13 14 15 15 14 14 18 23 32 38 50 62 73 79 85 92 95 95 94 96 99 100 98 92 85 76 71 70 69 63 54 48 42 43 42 44 49 51 52
16 18 14 12 12 14 13 14 12 10 14 13 12 16 16 17 21 24 27 38 46 49 57 70 82 89 92 92 93 93 96 100 99 96 88 78 74 79 70 64 55 47 44 42 42 46 49 50 52
18 16 18 13 13 13 14 15 10 11 12 12 11 11 14 15 17 21 26 32 44 46 46 59 77 83 84 89 90 87 90 100 100 97 93 84 80 80 75 59 53 46 46 47 42 47 48 51 51
17 18 15 12 13 14 15 16 12 11 13 13 13 12 12 12 13 18 23 28 32 38 45 52 76 76 83 87 88 89 90 89 87 91 87 88 84 77 69 57 52 50 50 48 44 45 49 50 52
18 17 14 13 14 17 16 16 13 11 11 12 13 12 13 12 13 17 20 21 26 33 42 52 64 79 79 83 88 84 80 80 80 78 73 72 77 72 70 56 52 59 52 46 45 43 49 50 51
17 18 16 12 11 15 17 15 13 11 12 12 12 12 12 14 15 22 27 27 32 36 41 56 76 81 84 88 89 83 77 75 72 66 62 62 69 70 70 58 55 65 49 48 48 46 51 53 53
18 18 17 14 13 17 16 15 12 11 11 10 11 12 15 16 19 26 31 36 40 41 45 52 78 85 88 86 82 80 78 71 65 62 59 62 69 68 69 62 58 66 51 52 52 51 55 56 55
18 18 19 20 16 14 14 14 11 11 11 13 14 16 20 23 25 28 33 42 46 52 54 59 68 85 90 86 83 80 76 73 66 62 62 71 73 76 75 70 59 60 55 54 58 58 59 58 58
22 14 18 17 18 21 14 21 14 11 11 14 20 23 26 28 29 32 34 41 48 60 68 70 82 90 94 92 88 86 83 80 78 78 75 81 82 84 81 75 71 66 63 60 64 61 62 59 62
18 14 17 16 19 20 18 19 14 11 11 12 23 28 32 35 36 37 39 44 48 56 66 74 79 83 95 100 96 91 92 89 86 85 88 91 88 84 80 76 70 67 70 67 65 64 66 62 62
14 17 17 17 18 25 18 16 14 12 11 14 25 28 32 35 39 39 46 47 46 55 64 68 74 80 98 100 99 95 91 91 89 88 87 85 83 80 74 76 75 71 69 75 76 70 76 69 63
16 22 29 29 26 25 15 17 15 11 13 14 22 28 28 27 33 34 35 35 41 47 53 63 67 74 89 98 99 100 99 97 93 92 96 100 100 99 100 100 100 94 87 83 79 80 80 78 72
19 20 30 38 34 26 17 22 16 14 18 21 22 27 25 25 26 26 26 29 34 41 47 51 60 63 73 81 83 92 94 96 96 98 98 99 99 98 100 100 96 94 97 84 83 81 85 83 75
21 24 19 27 24 31 23 18 13 21 23 26 26 28 26 24 22 22 19 19 19 20 36 49 53 52 56 67 76 79 89 92 98 94 96 96 95 98 100 100 100 97 92 87 88 86 81 75 73
18 17 27 26 42 40 25 21 20 24 24 28 32 32 28 24 21 19 18 18 19 22 23 42 51 53 54 63 64 65 73 88 90 99 98 96 97 98 97 96 96 91 91 87 82 78 74 72 73
22 23 23 23 27 38 40 31 23 25 26 26 26 26 22 20 18 19 19 20 21 23 25 31 44 45 50 55 64 71 83 87 95 96 98 100 99 97 99 99 98 97 98 91 87 78 71 66 60
19 22 22 34 34 32 37 50 21 22 23 24 23 21 20 17 18 18 19 21 23 28 31 34 35 41 48 57 63 78 86 81 89 100 96 99 100 100 100 91 88 83 80 80 76 65 59 56 54